[[{"header":{"parameterUnit":"m.s-1","parameterCategory":1,"la1":30.2991,"la2":30.254,"lo1":-89.0895,"lo2":-89.0444,"dy":0.0017,"dx":0.0017,"nx":28,"ny":28,"refTime":"2024-06-13T09:00:00:Z","depth":0,"parameterNumber":2,"parameterNumberName":"U-component_of_WINDS"},"data":[0,0,0,0,0,0,0,0,0,0,0,0,0,0,0,0,0,0,0,0,0,0,0,0,0,0,0,0,0,0,0,0,0,0,0,0,0,0,0,0,0,0,0,0,0,0,0,0,0,0,0,0,0,0,0,0,0,0,2.2937,2.2937,0,2.2963,2.2964,2.2964,2.29,2.2898,2.2896,2.2894,2.2924,2.2927,2.2929,0,0,0,0,0,0,0,0,0,0,0,0,0,2.2832,2.2834,2.2937,2.2937,2.2938,2.2963,2.2964,2.2964,2.29,2.2898,2.2895,2.2893,2.2923,2.2926,2.293,0,0,0,0,0,0,0,0,0,0,0,0,0,2.287,2.2835,2.2937,2.2909,2.2907,2.2963,2.2964,2.2964,2.2901,2.2898,2.2895,2.2892,2.2922,2.2926,2.293,2.3016,0,0,2.2942,2.2944,0,0,0,0,0,0,0,0,2.2868,2.2874,2.2913,2.2911,2.2909,2.2925,2.2938,2.2982,2.2902,2.2903,2.2894,2.289,2.2927,2.2931,2.2942,2.3018,2.3019,2.2943,2.2945,2.2947,2.2948,0,0,0,0,0,0,0,2.2866,2.2873,2.2948,2.2913,2.2911,2.2895,2.2897,2.2946,2.2932,2.2903,2.2898,2.2902,2.2925,2.2939,2.2943,2.3019,2.2943,2.2946,2.2949,2.295,2.3163,2.3166,0,0,0,0,0,0,2.2866,2.2871,2.2947,2.2948,2.288,2.29,2.2902,2.2923,2.2931,2.293,2.2905,2.2899,2.2933,2.2938,2.2943,2.3042,2.2947,2.2951,2.2953,2.316,2.3163,2.3167,0,0,0,0,0,0,2.2864,2.2874,2.2946,2.2908,2.2916,2.2905,2.2929,2.2925,2.2938,2.2933,2.293,2.2921,2.2931,2.2938,2.2997,2.3042,2.2953,2.2956,2.3156,2.3161,2.3165,2.3242,0,0,0,0,0,0,2.2862,2.2873,2.2906,2.291,2.2919,2.3,2.2932,2.2928,2.2945,2.2938,2.2947,2.2945,2.2929,2.2992,2.3002,2.3046,2.2959,2.3152,2.3158,2.3164,2.3236,2.3249,2.3261,0,0,0,0,0,2.2858,2.2928,2.2908,2.2918,2.2959,2.3002,2.3008,2.2986,2.2949,2.2981,2.2977,2.2945,2.3036,2.2998,2.3009,2.3056,2.3149,2.3156,2.3163,2.323,2.3247,2.3261,0,0,0,0,0,0,2.2933,2.2929,2.2906,2.2979,2.2991,2.2991,2.3032,2.3005,2.3029,2.3021,2.2995,2.2997,2.3062,2.3065,2.3023,2.3138,2.3086,2.3096,2.3133,2.3149,2.3161,2.3159,2.2963,0,0,0,0,0,2.2958,2.2992,2.2987,2.3052,2.3059,2.3045,2.3063,2.3045,2.3057,2.3062,2.3062,2.3076,2.3107,2.3128,2.3157,2.3236,2.3236,2.3273,2.3285,2.3296,2.3304,2.3343,2.3359,2.3191,2.3191,2.3191,0,0,2.301,2.3012,2.3036,2.3067,2.3074,2.3111,2.305,2.3092,2.3118,2.3069,2.3124,2.3125,2.3138,2.3207,2.3237,2.3211,2.3351,2.3305,2.3313,2.3316,2.3353,2.3368,2.3383,2.3196,2.3195,2.3194,0,0,2.3123,2.3129,2.3182,2.3189,2.32,2.3189,2.3202,2.3205,2.3203,2.3258,2.3221,2.3252,2.3307,2.3317,2.3329,2.3442,2.3412,2.3452,2.3518,2.3556,2.3569,2.3581,2.3619,2.3633,2.3461,2.3461,2.3461,0,2.3187,2.3239,2.3213,2.3256,2.327,2.3225,2.3278,2.3287,2.3308,2.3318,2.3289,2.3354,2.336,2.3429,2.3456,2.3468,2.3481,2.3451,2.3569,2.3581,2.3591,2.3627,2.3642,2.3466,2.3465,2.3465,2.3464,0,2.3316,2.3353,2.3395,2.3412,2.3431,2.348,2.346,2.3483,2.3462,2.3455,2.351,2.3515,2.3542,2.3557,2.3539,2.3623,2.3606,2.3574,2.3521,2.3612,2.3645,2.3659,2.3472,2.347,2.3469,2.3468,0,0,2.348,2.3479,2.3495,2.3501,2.3507,2.3536,2.3581,2.3606,2.3624,2.3639,2.3676,2.3721,2.369,2.3704,2.3686,2.372,2.3806,2.3682,2.3682,2.3704,2.3896,2.392,2.3936,2.3786,2.3789,2.3791,2.3894,0,2.359,2.3665,2.3641,2.3718,2.3751,2.3706,2.3745,2.3754,2.3747,2.3773,2.3766,2.3798,2.3755,2.3763,2.3794,2.3789,2.3844,2.3781,2.3819,2.3821,2.3816,2.3954,2.398,2.4077,2.3907,2.3909,2.3911,0,2.3729,2.3746,2.3825,2.3823,2.3835,2.3871,2.389,2.3916,2.3924,2.3916,2.393,2.3904,2.3947,2.3895,2.3953,2.3911,2.3925,2.3924,2.3928,2.393,2.3871,2.3958,2.4108,2.4122,2.3932,2.393,2.3929,0,2.3837,2.388,2.3932,2.3939,2.3938,2.3964,2.3965,2.3969,2.3985,2.4001,2.4011,2.4033,2.4046,2.4063,2.4044,2.4008,2.4105,2.4051,2.4099,2.41,2.4122,2.412,2.4274,2.4133,2.4133,2.4132,2.4132,0,2.3962,2.4012,2.398,2.4013,2.4066,2.4038,2.4092,2.4088,2.4092,2.4122,2.4086,2.4115,2.4088,2.4115,2.41,2.4149,2.4156,2.415,2.4146,2.4153,2.4154,2.4161,2.4154,2.4136,2.4135,2.4135,2.4134,0,2.4093,2.4074,2.4127,2.4121,2.412,2.416,2.4154,2.4183,2.4172,2.4211,2.4218,2.4202,2.4231,2.4213,2.4244,2.4234,2.4298,2.4284,2.4295,2.429,2.4339,2.4334,2.4502,2.4522,2.437,2.4371,2.4372,0,2.4174,2.421,2.4206,2.4222,2.4225,2.4253,2.4267,2.424,2.4256,2.4265,2.4293,2.4318,2.4337,2.4386,2.4377,2.4399,2.4385,2.4443,2.4389,2.4394,2.4384,2.4381,2.4384,2.4454,2.4456,2.4457,2.4458,0,2.4318,2.4305,2.4327,2.4343,2.4361,2.4374,2.4383,2.4399,2.4371,2.4392,2.4419,2.4434,2.4463,2.4488,2.4506,2.4507,2.4478,2.4475,2.4487,2.4494,2.4498,2.4494,2.4323,2.4471,2.447,2.4469,2.4468,2.4468,2.4425,2.4454,2.4454,2.4478,2.4482,2.4491,2.4516,2.4507,2.453,2.455,2.4532,2.4565,2.4569,2.459,2.4594,2.462,2.4596,2.4614,2.4619,2.4623,2.4629,2.4494,2.4623,2.4623,2.4622,2.4622,2.4622,0,2.4565,2.4562,2.4584,2.4597,2.4615,2.4584,2.4592,2.461,2.4639,2.4644,2.4662,2.4693,2.4716,2.4708,2.4728,2.475,2.4737,2.4756,2.4754,2.4754,2.465,2.4636,2.4766,2.4766,2.4766,2.4766,2.4766,2.4766,2.4641,2.4687,2.4674,2.4721,2.4718,2.4748,2.4755,2.4763,2.4766,2.4802,2.482,2.4813,2.4813,2.4832,2.4852,2.4849,2.4858,2.4882,2.4874,2.4776,2.4762,2.4748,2.4735,2.4884,2.4884,2.4976,2.4976,2.4977]},{"header":{"parameterUnit":"m.s-1","parameterCategory":1,"la1":30.2991,"la2":30.254,"lo1":-89.0895,"lo2":-89.0444,"dy":0.0017,"dx":0.0017,"nx":28,"ny":28,"refTime":"2024-06-13T09:00:00:Z","depth":0,"parameterNumber":3,"parameterNumberName":"V-component_of_WINDS"},"data":[0,0,0,0,0,0,0,0,0,0,0,0,0,0,0,0,0,0,0,0,0,0,0,0,0,0,0,0,0,0,0,0,0,0,0,0,0,0,0,0,0,0,0,0,0,0,0,0,0,0,0,0,0,0,0,0,0,0,0.0245,0.0245,0,0.0191,0.019,0.0189,0.0144,0.0144,0.0143,0.0143,0.0085,0.0084,0.0083,0,0,0,0,0,0,0,0,0,0,0,0,0,0.0309,0.0308,0.0245,0.0245,0.0244,0.0191,0.019,0.0189,0.0144,0.0144,0.0143,0.0143,0.0085,0.0084,0.0083,0,0,0,0,0,0,0,0,0,0,0,0,0,0.027,0.0308,0.0246,0.0215,0.0212,0.0191,0.019,0.0189,0.0145,0.0144,0.0143,0.0143,0.0086,0.0084,0.0082,0.0086,0,0,0.0077,0.0077,0,0,0,0,0,0,0,0,0.0273,0.0268,0.022,0.0217,0.0214,0.0174,0.0191,0.0154,0.0145,0.017,0.0143,0.0142,0.0115,0.0111,0.0102,0.0083,0.0081,0.0077,0.0076,0.0075,0.0075,0,0,0,0,0,0,0,0.0275,0.027,0.0224,0.022,0.0216,0.0204,0.0197,0.0184,0.0147,0.0168,0.0165,0.0159,0.0113,0.0104,0.01,0.008,0.0077,0.0076,0.0075,0.0074,0.006,0.006,0,0,0,0,0,0,0.0283,0.0273,0.0225,0.0222,0.0242,0.0203,0.0196,0.0187,0.0147,0.014,0.0159,0.0157,0.0107,0.0102,0.0098,0.0099,0.0075,0.0074,0.0073,0.0059,0.006,0.0061,0,0,0,0,0,0,0.0285,0.0279,0.0228,0.0246,0.0239,0.0203,0.0193,0.0186,0.0177,0.0141,0.0134,0.0157,0.0106,0.01,0.0089,0.0096,0.0073,0.0072,0.0058,0.0059,0.006,0.0101,0,0,0,0,0,0,0.0287,0.028,0.0282,0.0247,0.0238,0.0221,0.0193,0.0186,0.0175,0.0171,0.0136,0.013,0.0105,0.0092,0.0087,0.0093,0.007,0.0058,0.0059,0.006,0.0099,0.0103,0.0107,0,0,0,0,0,0.0289,0.0295,0.0282,0.0277,0.024,0.0221,0.0216,0.0188,0.0175,0.0176,0.0153,0.0131,0.0096,0.0091,0.0086,0.0091,0.0057,0.0059,0.006,0.0097,0.0102,0.0107,0,0,0,0,0,0,0.0332,0.029,0.0275,0.027,0.025,0.0214,0.0214,0.0195,0.0176,0.0174,0.0138,0.0131,0.0123,0.0106,0.0101,0.0092,0.0074,0.0074,0.0104,0.0108,0.0112,0.0117,0.0069,0,0,0,0,0,0.034,0.033,0.0294,0.0293,0.0283,0.0251,0.0242,0.0222,0.0198,0.0189,0.0165,0.0142,0.0126,0.0116,0.0099,0.0096,0.0087,0.0097,0.0101,0.0104,0.0105,0.0101,0.0105,0.0065,0.0065,0.0065,0,0,0.0359,0.0335,0.033,0.0301,0.0282,0.0271,0.0244,0.0233,0.0224,0.0187,0.0175,0.0157,0.0129,0.0122,0.0117,0.0107,0.0114,0.0106,0.0109,0.0108,0.0103,0.0107,0.011,0.0066,0.0066,0.0066,0,0,0.0386,0.0367,0.0364,0.0346,0.0319,0.0297,0.0296,0.0263,0.0249,0.0236,0.0208,0.0196,0.017,0.0151,0.0138,0.0157,0.0136,0.0153,0.0174,0.017,0.0173,0.0176,0.0182,0.0184,0.0153,0.0154,0.0154,0,0.0412,0.0395,0.0365,0.0356,0.0343,0.031,0.0306,0.029,0.0258,0.025,0.0239,0.0204,0.0183,0.017,0.0175,0.0166,0.0163,0.0156,0.0175,0.0177,0.0179,0.0185,0.0187,0.0156,0.0155,0.0155,0.0155,0,0.0427,0.0416,0.0416,0.0387,0.0374,0.0368,0.0336,0.0327,0.0308,0.0287,0.0274,0.0247,0.0224,0.022,0.0201,0.0204,0.0198,0.0182,0.0163,0.0186,0.019,0.0192,0.0159,0.0158,0.0157,0.0157,0,0,0.048,0.0434,0.0435,0.0421,0.0388,0.0377,0.0369,0.0347,0.0339,0.0318,0.0309,0.0287,0.0271,0.0257,0.0235,0.0232,0.0248,0.0215,0.0214,0.0222,0.0248,0.0261,0.0264,0.0234,0.0234,0.0234,0.025,0,0.0502,0.0486,0.0458,0.045,0.0438,0.0406,0.0398,0.0377,0.0357,0.0343,0.032,0.0304,0.0285,0.0276,0.0271,0.0247,0.0252,0.0245,0.0224,0.0224,0.0232,0.0266,0.0279,0.0296,0.0252,0.0252,0.0252,0,0.0525,0.0506,0.0498,0.0464,0.0458,0.0452,0.0429,0.0417,0.0391,0.0376,0.036,0.0336,0.0324,0.0307,0.0289,0.0285,0.0275,0.0261,0.0261,0.0258,0.024,0.0263,0.0301,0.0303,0.0255,0.0255,0.0255,0,0.0564,0.0536,0.0527,0.0516,0.0478,0.0474,0.0457,0.0431,0.0419,0.0399,0.039,0.0368,0.0356,0.034,0.031,0.0301,0.0295,0.0276,0.0282,0.0283,0.0282,0.0283,0.0318,0.0276,0.0276,0.0276,0.0276,0,0.0591,0.0586,0.0544,0.0539,0.0532,0.05,0.0495,0.0475,0.0452,0.0441,0.0411,0.0402,0.0364,0.0349,0.0326,0.0314,0.0309,0.0296,0.029,0.0299,0.03,0.0291,0.0289,0.0277,0.0277,0.0277,0.0277,0,0.0633,0.0605,0.0592,0.0557,0.0548,0.0545,0.0514,0.0506,0.0484,0.0471,0.0466,0.0431,0.0412,0.0381,0.0353,0.0338,0.033,0.032,0.0339,0.0335,0.0343,0.0342,0.0374,0.0376,0.0333,0.0334,0.0334,0,0.0652,0.0648,0.0612,0.0603,0.0588,0.0573,0.0561,0.0529,0.0517,0.0487,0.0483,0.0462,0.0444,0.0415,0.0387,0.0365,0.0354,0.0366,0.035,0.0359,0.0353,0.0354,0.0352,0.037,0.037,0.0371,0.0371,0,0.0688,0.0674,0.0658,0.0637,0.0623,0.0605,0.0585,0.0579,0.0542,0.053,0.0511,0.0497,0.0468,0.0447,0.0421,0.0403,0.0381,0.0377,0.0377,0.0385,0.0396,0.039,0.0349,0.0376,0.0375,0.0375,0.0375,0.0375,0.0718,0.0713,0.0687,0.067,0.0651,0.0633,0.0624,0.0601,0.0585,0.056,0.0541,0.0523,0.0496,0.0459,0.0442,0.0427,0.0417,0.0417,0.0417,0.0418,0.0421,0.0399,0.0422,0.0422,0.0421,0.0421,0.0421,0,0.0753,0.0734,0.0719,0.0692,0.0678,0.0659,0.0635,0.0625,0.061,0.0587,0.0569,0.0547,0.0526,0.0496,0.0472,0.0466,0.0455,0.0461,0.0461,0.0457,0.0431,0.0433,0.047,0.047,0.047,0.047,0.047,0.047,0.0769,0.0758,0.0741,0.0721,0.0702,0.0685,0.0673,0.0655,0.0637,0.0613,0.0597,0.0577,0.0551,0.0525,0.0505,0.0497,0.0489,0.0498,0.0486,0.0463,0.0459,0.0454,0.0456,0.0497,0.0497,0.0513,0.0513,0.0513]}]]